Regional Weather Roundup
Issued by NWS Binghamton, NY

Home | Current Version | Previous Version | Text Only | Print | Product List | Glossary On
Versions: 1 2 3 4 5 6 7 8 9 10 11 12 13 14 15 16 17 18 19 20 21 22 23 24 25 26 27 28 29 30 31 32 33 34 35 36 37 38 39 40 41 42 43 44 45 46 47 48
000
ASUS41 KBGM 291610
RWRBGM
RWRBGM
BINGHAMTON REGIONAL WEATHER ROUNDUP
NATIONAL WEATHER SERVICE BINGHAMTON NY
1200 PM EDT SUN MAR 29 2015

Note: "fair" indicates few or no clouds below 12,000 feet with no
significant weather and/or obstructions to visibility.

* = Station(s) that does not report precipitation, such as rain,
snow, etc, also no thunder or fog.

!NYZ009-015>018-022>025-036-037-044>046-055>057-062-291700
...CENTRAL NEW YORK...

CITY           SKY/WX    TMP DP  RH WIND       PRES   REMARKS
BINGHAMTON     SUNNY     27  10  49 VRB5      30.21F WCI  22
CORTLAND       FAIR      28  12  50 W6        30.26S WCI  22
DANSVILLE      SUNNY     34  13  41 NE5       30.27F WCI  30
ELMIRA         SUNNY     33   9  36 S9        30.27F WCI  25
ITHACA         SUNNY     30   8  39 W6        30.27F WCI  24
MONTICELLO     SUNNY     32   7  34 NW12      30.22F WCI  23
NORWICH        SUNNY     30   7  37 CALM      30.25F
ONEONTA        SUNNY     27   3  36 W8        30.19S WCI  18
PENN YAN       SUNNY     33   6  32 CALM      30.26F
ROME           SUNNY     29  15  56 VRB6      30.29F WCI  23
SIDNEY         SUNNY     34  14  44 N3        30.25S
SYRACUSE       MOSUNNY   32  12  43 W10       30.28F WCI  24
$$

!PAZ038>040-043-044-047-048-072-291700
...NORTHEAST PENNSYLVANIA...

CITY           SKY/WX    TMP DP  RH WIND       PRES   REMARKS
HAZLETON       SUNNY     30  10  43 NW3       30.26F
SCRANTON       SUNNY     34   8  33 W10       30.26F WCI  26
TOWANDA*       SUNNY     34   5  29 SE6       30.28F WCI  29
$$
&&
KEY
WCI = WIND CHILL INDEX
VSB = VISIBILITY
HX  = HEAT INDEX
$$


USA.gov is the U.S. government's official web portal to all federal, state and local government web resources and services.